Orbital Elements at Epoch 2459200.5 (2020-Dec-17.0) TDB
Reference: JPL 22 (heliocentric ecliptic J2000)
Element | Value | Uncertainty (1-sigma) | Units |
e | .06847627295037667 | 3.2021e-08 | |
a | 3.053783419735868 | 2.3405e-08 | au |
q | 2.844671712754699 | 9.9462e-08 | au |
i | 2.732420172159101 | 3.573e-06 | deg |
node | 254.9473138146662 | 8.7997e-05 | deg |
peri | 11.19893936137567 | 9.5939e-05 | deg |
M | 60.73660985007962 | 3.5669e-05 | deg |
tp | 2458871.645474721286 (2020-Jan-23.14547472) | 0.00019446 | TDB |
period | 1949.197187537489 5.34 | 2.2408e-05 6.135e-08 | d yr |
n | .1846914218334188 | 2.1233e-09 | deg/d |
Q | 3.262895126717036 | 2.5007e-08 | au |
|
| | Orbit Determination Parameters
Additional Information
|